Weather History for Vandenberg AFB, CA

Change the Weather History Date:

Saturday, February 16, 2013

  Actual Average Record
Temperature  
Mean Temperature 62 °F -  
Max Temperature 78 °F 58 °F 78 °F (2013)
Min Temperature 43 °F 44 °F 37 °F (1998)
Degree Days  
Heating Degree Days 3    
Growing Degree Days 12 (Base 50)    
Moisture  
Dew Point 32 °F    
Average Humidity 43    
Maximum Humidity 65    
Minimum Humidity 11    
Precipitation  
Precipitation 0.00 in - - ()
Sea Level Pressure  
Sea Level Pressure 30.08 in    
Wind  
Wind Speed 9 mph (ESE)    
Max Wind Speed 14 mph    
Max Gust Speed -    
Visibility 10 miles    
Events      
Averages and records for this station are not official NWS values.
T = Trace of Precipitation, MM = Missing Value Source: NWS Daily Summary

Daily Weather History Graph

Daily Weather History Graph

Search for Another Location

Airport:

Trip Planner

Search our weather history database for the weather conditions in past years. The results will help you decide how hot, cold, wet, or windy it might be!

Date:

Astronomy

Feb. 16, 2013 Rise Set
Actual Time 6:46 AM PST 5:46 PM PST
Civil Twilight 6:20 AM PST 6:12 PM PST
Nautical Twilight 5:51 AM PST 6:42 PM PST
Astronomical Twilight 5:21 AM PST 7:11 PM PST
Moon 10:20 AM PST (2/16) No Moon Set
Length of Visible Light 11h 51m
Length of Day
11h 00m
Waxing Crescent, 40% of the Moon is Illuminated
Feb 16
Waxing Crescent
Feb 17
First Quarter
Feb 25
Full
Mar 4
Last Quarter
Mar 11
New

Hourly Weather History & Observations

Time (PST) Temp. Dew Point Humidity Pressure Visibility Wind Dir Wind Speed Gust Speed Precip Events Conditions
12:55 AM 48.9 °F 33.1 °F 54% 30.15 in 10.0 mi ESE 10.4 mph - N/A   Clear
1:55 AM 48.9 °F 33.1 °F 54% 30.14 in 10.0 mi ESE 12.7 mph - N/A   Clear
2:55 AM 51.1 °F 33.1 °F 50% 30.12 in 10.0 mi ESE 12.7 mph - N/A   Clear
3:55 AM 48.9 °F 33.1 °F 54% 30.12 in 10.0 mi ESE 12.7 mph - N/A   Clear
4:55 AM 48.0 °F 32.0 °F 54% 30.12 in 10.0 mi ESE 9.2 mph - N/A   Clear
5:55 AM 48.9 °F 32.0 °F 52% 30.12 in 10.0 mi ESE 11.5 mph - N/A   Clear
6:55 AM 48.0 °F 30.9 °F 52% 30.13 in 10.0 mi ESE 12.7 mph - N/A   Clear
7:55 AM 53.1 °F 30.0 °F 41% 30.14 in 10.0 mi ESE 13.8 mph - N/A   Clear
8:55 AM 60.1 °F 30.9 °F 33% 30.14 in 10.0 mi ESE 12.7 mph - N/A   Clear
9:55 AM 68.0 °F 33.1 °F 27% 30.14 in 10.0 mi ESE 11.5 mph - N/A   Clear
10:55 AM 73.9 °F 32.0 °F 21% 30.13 in 10.0 mi ESE 6.9 mph - N/A   Clear
11:55 AM 78.1 °F 19.0 °F 11% 30.10 in 10.0 mi SE 10.4 mph - N/A   Clear
12:55 PM 70.0 °F 35.1 °F 28% 30.08 in 10.0 mi WSW 11.5 mph - N/A   Clear
1:55 PM 66.9 °F 36.0 °F 32% 30.06 in 10.0 mi West 4.6 mph - N/A   Clear
2:55 PM 70.0 °F 33.1 °F 26% 30.04 in 10.0 mi NW 3.5 mph - N/A   Clear
3:55 PM 64.9 °F 34.0 °F 32% 30.04 in 10.0 mi West 8.1 mph - N/A   Clear
4:55 PM 63.0 °F 33.1 °F 33% 30.03 in 10.0 mi West 6.9 mph - N/A   Clear
5:55 PM 57.0 °F 34.0 °F 42% 30.03 in 10.0 mi NNW 3.5 mph - N/A   Clear
6:55 PM 52.0 °F 32.0 °F 47% 30.03 in 10.0 mi Calm Calm - N/A   Clear
7:55 PM 48.0 °F 33.1 °F 56% 30.02 in 10.0 mi East 6.9 mph - N/A   Clear
8:55 PM 50.0 °F 33.1 °F 52% 30.02 in 10.0 mi ESE 9.2 mph - N/A   Clear
9:55 PM 46.0 °F 30.9 °F 56% 30.03 in 10.0 mi Calm Calm - N/A   Clear
10:55 PM 46.9 °F 30.9 °F 54% 30.02 in 10.0 mi Calm Calm - N/A   Clear
11:55 PM 43.0 °F 32.0 °F 65% 30.01 in 10.0 mi Calm Calm - N/A   Clear